Hourly Data Report for October 02, 2015

All times are specified in Local Standard Time (LST). Add 1 hour to adjust for Daylight Saving Time where and when it is observed.

POND INLET A
NUNAVUT

72°41'22.000" N
77°58'08.000" W
61.60 m
2403206
71095
YIO

Related Data

No related data is available for this station

Download Data

Hourly Data (October 2015)
Hourly Data Report for October 2, 2015
Temp Definition
°C
Dew Point Temp Definition
°C
Rel Hum Definition
%
Wind Dir Definition
10's deg

Wind Spd Definition
km/h
Visibility Definition
km
Stn Press Definition
kPa
Hmdx Definition


Wind Chill Definition


Weather Definition


TIME
00:00 Legend Double Dagger 0.3 -2.4 82 22 35 16.1 98.68     LegendNANA
01:00 Legend Double Dagger -0.4 -1.7 91 22 45 6.4 98.62   -8 Snow
02:00 Legend Double Dagger -1.3 -2.2 94 22 50 1.2 98.65   -10 Snow
03:00 Legend Double Dagger -1.7 -2.3 96 21 48 1.0 98.75   -10 Snow
04:00 Legend Double Dagger -1.6 -2.9 91 25 71 1.0 98.85   -12 Moderate Snow
05:00 Legend Double Dagger -2.3 -2.9 96 27 65 1.2 99.11   -12 Snow
06:00 Legend Double Dagger -2.5 -3.2 95 27 50 1.6 99.41   -12 Snow
07:00 Legend Double Dagger -2.5 -3.2 95 26 52 0.8 99.63   -12 Moderate Snow
08:00 Legend Double Dagger -1.9 -4.4 83 25 63 2.4 99.72   -12 Snow
09:00 Legend Double Dagger -1.8 -4.6 81 26 59 4.8 99.82   -11 Snow
10:00 Legend Double Dagger -2.1 -5.2 80 25 68 2.8 99.88   -12 Snow
11:00 Legend Double Dagger -2.4 -5.3 80 26 61 1.2 99.99   -12 Snow
12:00 Legend Double Dagger -1.8 -5.2 78 25 67 6.4 100.06   -12 Snow
13:00 Legend Double Dagger -2.0 -5.3 79 25 71 2.4 100.10   -12 Snow
14:00 Legend Double Dagger -1.6 -5.5 75 26 61 4.8 100.17   -11 Snow
15:00 Legend Double Dagger -1.5 -5.3 76 25 68 8.1 100.27   -11 Snow
16:00 Legend Double Dagger -1.4 -4.5 80 25 65 9.7 100.35   -11 Snow
17:00 Legend Double Dagger -1.0 -4.1 79 25 59 12.9 100.38   -10 Snow
18:00 Legend Double Dagger -0.9 -3.7 81 25 63 9.7 100.45   -10 Snow
19:00 Legend Double Dagger -0.5 -3.8 79 25 54 16.1 100.59   -9 LegendNANA
20:00 Legend Double Dagger -0.6 -3.9 78 25 59 16.1 100.63   -10 LegendNANA
21:00 Legend Double Dagger -0.7 -4.0 79 24 61 16.1 100.69   -10 Snow
22:00 Legend Double Dagger -0.4 -4.1 76 25 55 16.1 100.76   -9 LegendNANA
23:00 Legend Double Dagger -0.4 -4.7 73 26 52 16.1 100.91   -9 LegendNANA

Notes on Data Quality.

Legend

  • E = Estimated
  • M = Missing
  • NA = Not Available
  • ‡ = Partner data that is not subject to review by the National Climate Archives
Date modified: